Location: Helsinki
(60.1699°N, 24.9384°E)
Time: 14:32:41
(UTC+02:00)

Transit 4A - Pass Details

Date: 02 November 2020
Orbit: 862 x 982 km, 66.8° (Epoch: 26 November)

Event Time Altitude Azimuth Distance (km) Brightness Sun altitude
Rises 01:06:08 0° 309° (NW) 3,698 11.2 -43.2°
Enters shadow 01:06:27 - 307° (NW) 3,617 11.1 -43.2°
Reaches altitude 10° 01:11:47 10° 269° (W) 2,731 - -43.0°
Maximum altitude 01:12:29 10° 263° (W) 2,714 - -42.9°
Drops below altitude 10° 01:13:11 10° 257° (WSW) 2,725 - -42.9°
Sets 01:18:46 0° 217° (SW) 3,638 - -42.6°
